{"data":{"norad_id":63478,"epoch":"2026-05-25T03:40:07.186944Z","epoch_age_seconds":65140,"freshness":"FRESH","line1":"1 63478U 25070U   26145.15286096 -.00004294  00000+0 -14670-3 0  9998","line2":"2 63478  43.0015 184.2199 0001609 278.9214  81.1456 15.27554832 64711","mean_motion":15.27554832,"eccentricity":0.0001609,"inclination_deg":43.0015,"raan_deg":184.2199,"arg_perigee_deg":278.9214,"mean_anomaly_deg":81.1456,"bstar":-0.0001467,"rev_number":6471,"period_min":94.26830185301,"perigee_km":482.02048215174,"apogee_km":484.22843608928,"semimajor_km":6861.2614591205,"source":"CELESTRAK","updated_at":"2026-05-25T13:38:20.008958Z"}}